Choose a state:
Most recent flow and stage for Montana
(Stations highlighted in red are currently above flood stage)
USGS
station
ID
USGS station name NWS
flood
stage
(ft)
Most recent
stage
(ft)
Most recent
flow
(cfs)
Historical
peaks
(cfs)
Most recent
local
date/time
NWS
station
ID
05014500 Swiftcurrent Creek at Many Glacier MT   1.43 10.7 6,700 2023-02-05 18:30:00 MGGM8
05015500 Lake Sherburne at Sherburne MT   4753.32

 

  2023-02-05 18:00:00 SBUM8
05017500 St. Mary River near Babb MT   1.86 43.1 16,500 2023-02-05 18:15:00 SMYM8
05018000 St. Mary Canal at intake near Babb MT   1.79 Ssn   2023-02-05 18:15:00 SCIM8
05018500 St. Mary Canal at St. Mary Crossing near Babb MT   3.98 Ssn 2023-02-05 18:15:00 SCCM8
05020500 St. Mary River at International Boundary 7.5 4.84 Ice 40,000 2023-02-05 18:10:00 SMBM8
06006000 Red Rock Cr ab Lakes, nr Lakeview, MT   3.02 Ssn 293 2023-01-31 13:30:00 RRLM8
06012500 Red Rock R bl Lima Reservoir nr Monida MT   0.15 0.00 2,500 2022-11-27 20:15:00 LRRM8
06016000 Beaverhead River at Barretts MT   0.50 Ssn 3,720 2023-02-05 18:15:00 BARM8
06017000 Beaverhead River at Dillon MT   3.43 Ssn 1,740 2023-02-05 18:15:00 DILM8
06018500 Beaverhead River near Twin Bridges MT 7 4.30 Ice 3,130 2023-02-05 18:15:00 TWNM8
06019500 Ruby River above reservoir near Alder, MT   4.58 Ice 3,810 2023-02-05 18:45:00 RRRM8
06020600 Ruby River below reservoir near Alder, MT   2.39 63.0 3,010 2023-02-05 18:45:00 RRBM8
06023000 Ruby River near Twin Bridges MT   2.73 Ssn 1,500 2023-01-22 09:45:00 RTBM8
06023100 Beaverhead River at Twin Bridges, MT   2.72 Ssn 5.52 2023-02-05 18:30:00 TWBM8
06024450 Big Hole River bl Big Lake Cr at Wisdom MT   2.23 Ssn 4,550 2023-02-05 18:45:00 BGKM8
06024540 Big Hole River bl Mudd Cr nr Wisdom MT   5.24 Ssn 7,300 2023-01-30 06:45:00 BHDM8
06025250 Big Hole River at Maiden Rock nr Divide MT   2.79 Ssn 10,600 2023-02-05 18:45:00 MRDM8
06025500 Big Hole River near Melrose MT 6 1.65 Ice 23,000 2023-02-05 18:15:00 MLRM8
06026210 Big Hole River near Glen MT   2.93 Ssn 11,900 2023-02-05 18:30:00 GNLM8
06026420 Big Hole R bl Hamilton Ditch nr Twin Bridges, MT   2.870 Ssn 11,200 2023-02-05 18:30:00 THDM8
06026500 Jefferson River near Twin Bridges MT 10 6.80 Ice 16,500 2023-02-05 18:15:00 TWIM8
06027600 Jefferson River at Parsons Bdg nr Silver Star, MT   3.99 Ssn 13,600 2023-02-05 18:30:00 PBRM8
06033000 Boulder River near Boulder MT   5.04 30.8 7,000 2023-02-05 18:15:00 BLDM8
06035000 Willow Creek near Harrison MT   2.97 Ssn 813 2023-02-05 18:15:00 WCHM8
06036650 Jefferson River near Three Forks MT 8 10.34 Ice 17,400 2023-02-05 18:00:00 TFKM8
06036805 Firehole River at Old Faithful, YNP   2.39 38.7 585 2023-02-05 18:00:00  
06036905 Firehole River near West Yellowstone MT   2.96 244 2,050 2023-02-05 18:00:00  
06036940 Tantalus Creek at Norris Junction, YNP   1.61 6.16 60.0 2023-02-05 18:30:00  
06037100 Gibbon River at Madison Jct, YNP   4.58 Ice 1,150 2023-02-05 18:00:00 GMJW4
06037500 Madison River near West Yellowstone, MT   1.72 Ice 2,820 2023-02-05 18:30:00 MDSM8
06038500 Madison River bl Hebgen Lake nr Grayling MT   1.78 975 10,200 2023-02-05 18:45:00 HBDM8
06038800 Madison River at Kirby Ranch nr Cameron MT   1.88 Ice 5,030 2023-02-05 18:45:00 CMRM8
06040000 Madison River near Cameron MT   2.33 1,160 8,830 2023-02-05 18:15:00 CMNM8
06040800 Madison River ab powerplant nr McAllister MT   3.73 Ice 6,100 2023-02-05 18:30:00 MRPM8
06041000 Madison River bl Ennis Lake nr McAllister MT   2.54 1,610 9,550 2023-02-05 18:45:00 MADM8
06043120 Gallatin River above Deer Creek, near Big Sky, MT   4.71 200 6,410 2023-02-05 18:30:00 GBSM8
06043500 Gallatin River near Gallatin Gateway, MT 6 1.23 283 9,160 2023-02-05 18:00:00 GLGM8
06048650 E Gallatin R ab Water Reclamation Fa nr Bozeman MT   3.84 Ice 2,410 2023-02-05 18:30:00 EGBM8
06050000 Hyalite C at Hyalite R S nr Bozeman MT   2.90 Ice 956 2023-02-05 18:30:00 HCCM8
06052500 Gallatin River at Logan MT 9 4.50 Ice 9,840 2023-02-05 18:00:00 LOGM8
06054500 Missouri River at Toston MT 10.5 3.98 3,080 34,000 2023-02-05 18:00:00 TOSM8
06061500 Prickly Pear Creek near Clancy MT   0.59 Ice 2,300 2023-02-05 18:30:00 PKPM8
06062500 Tenmile Creek near Rimini MT   1.38 Ice 3,290 2023-02-05 18:45:00 RIMM8
06063000 Tenmile Creek near Helena MT 4.5 2.31 Ice 3,770 2023-02-05 18:15:00 TMHM8
06065500 Missouri River bl Hauser Dam near Helena MT   3.51 3,740 33,300 2023-02-05 18:00:00 HASM8
06066500 Missouri River bl Holter Dam nr Wolf Cr MT   2.56 3,640 34,800 2023-02-05 18:45:00 HTRM8
06071300 Little Prickly Pear Cr at Wolf Cr MT   2.89 Ice 4,500 2023-02-05 18:45:00 LPPM8
06073500 Dearborn River near Craig MT 6.5 3.54 Ice 15,400 2023-02-05 18:15:00 DBRM8
06074000 Missouri River at Cascade MT   6.58 Ice 54,200 2023-02-05 18:30:00 CASM8
06076590 Camas C nr Mouth nr White Sulphur Springs MT   3.42 Ice   2023-02-05 18:45:00  
06076690 Smith River near Ft Logan MT   3.28 Ice 4,600 2023-02-05 18:30:00 SFLM8
06077200 Smith River bl Eagle Cr nr Fort Logan MT   4.86 Ice 4,030 2023-02-05 18:15:00 SMHM8
06077500 Smith River near Eden MT   3.42 Ssn 12,300 2023-02-05 18:45:00 EDNM8
06078200 Missouri River near Ulm MT 13.5 6.44 Ice 35,000 2023-02-05 18:00:00 ULMM8
06078500 North Fork Sun River near Augusta MT 9 3.03 Ice 51,100 2023-02-05 18:30:00 NFSM8
06079000 South Fork Sun River near Augusta MT   1.28 Ice 28,800 2023-02-05 18:15:00 SSNM8
06080900 Sun River bl Diversion Dam nr Augusta MT   3.69 Ice 59,700 2023-02-05 18:45:00  
06082200 Sun River bl Willow Cr nr Augusta MT   2.26 Ice 46,700 2023-02-05 18:15:00 SRVM8
06085800 Sun River at Simms MT 7.5 3.43 Ice 50,000 2023-02-05 18:30:00 SSRM8
06088500 Muddy Creek at Vaughn MT 12 2.95 Ice 7,600 2023-02-05 18:30:00 MDYM8
06089000 Sun River near Vaughn MT 6 2.29 Ice 53,500 2023-02-05 18:00:00 VAUM8
06090300 Missouri River near Great Falls MT   3.27 5,300 72,000 2023-02-05 18:45:00 GFLM8
06090500 Belt Creek near Monarch MT 6.5 2.11 Ice 11,000 2023-02-05 18:15:00 BTCM8
06090800 Missouri River at Fort Benton MT 13.5 2.49 Ice 140,000 2023-02-05 18:30:00 FBNM8
06091700 Two Medicine River bl South Fork nr Browning MT   2.81 Ice 11,700 2023-02-05 18:15:00 TMRM8
06092020 Two Medicine River ab Badger Cr, nr Piegan, MT   1.81 Ice 2,320 2023-02-05 18:15:00  
06093200 Badger Cr bl Four Horns Canal nr Browning MT 7 4.13 Eqp 20,700 2023-01-28 00:15:00 BDCM8
06094900 Birch Cr bl Heart Butte Road, nr Heart Butte, MT   1.35 Ice   2023-02-05 18:15:00  
06098120 Birch Creek at Bullhead Bridge, nr Valier, MT   20.25 Eqp   2023-02-05 10:45:00  
06098800 Cut Bank Cr ab Gillam Coulee, nr Sundance, MT   4.70 Ice 1,580 2023-02-05 18:15:00  
06099000 Cut Bank Creek at Cut Bank MT   2.10 Ice 16,600 2023-02-05 18:30:00 CBKM8
06099500 Marias River near Shelby MT 9 3.61 Ice 241,000 2023-02-05 18:30:00 SHLM8
06101200 Willow Creek near Galata, MT   1.42 0.00 1,180 2023-02-05 18:30:00  
06101500 Marias River near Chester MT   3.15 373 10,400 2023-02-05 18:15:00 MRCM8
06102050 Marias River near Loma MT   2.60 Ssn 12,300 2023-02-05 18:00:00 LOMM8
06102500 Teton River bl South Fork nr Choteau MT 9 4.00 Ssn 54,600 2022-11-10 21:00:00 TSFM8
06108000 Teton River near Dutton MT 9 2.33 Ice 71,300 2023-02-05 18:30:00 DTTM8
06108800 Teton River at Loma MT   1.77 Ice 6,520 2023-02-05 18:30:00 LTRM8
06109500 Missouri River at Virgelle MT 17 6.40 Ice 122,000 2023-02-05 18:00:00 VRGM8
06110020 Judith River above Carr Creek near Utica MT   2.38 Ice 769 2023-02-05 18:30:00 JRUM8
06111800 Big Spring Cr at R&B Trading Post nr Lewistown MT   3.72 139 1,020 2023-02-05 18:30:00 LTPM8
06114700 Judith River nr mouth, nr Winifred MT   8.23 Ssn 15,900 2023-02-05 18:15:00 JDRM8
06115200 Missouri River near Landusky MT 27 22.27 Ice 137,000 2023-02-05 18:00:00 LDKM8
06119200 South Fork Musselshell River at Martinsdale, MT   1.88 Ice 650 2023-02-05 18:45:00  
06119600 Musselshell River nr Martinsdale, MT   1.50 Ssn 4,780 2023-02-05 18:15:00 MRMM8
06120500 Musselshell River at Harlowton MT 7 4.40 Eqp 7,270 2023-02-05 18:00:00 HLWM8
06123030 Musselshell River ab Mud Cr nr Shawmut MT 8 3.00 Ssn 8,900 2023-02-05 18:30:00 SHAM8
06125600 Musselshell River ab Big Coulee Creek at Lavina MT 9.5 1.75 Ssn 5,700 2023-02-05 18:30:00 LVNM8
06126500 Musselshell River near Roundup MT 10 1.40 Ice 15,000 2023-02-05 18:00:00 RUPM8
06127500 Musselshell River at Musselshell MT 11 1.98 Ssn 16,200 2023-02-05 18:30:00 MUSM8
06130000 Flatwillow Creek near Mosby MT   4.52 0.00 19,700 2023-02-05 18:00:00 MFLM8
06130500 Musselshell River at Mosby MT 10 2.74 Ice 25,100 2023-02-05 18:45:00 MSBM8
06131200 Nelson Creek near Van Norman MT   1.52 Ice 1,750 2023-02-05 18:15:00  
06133500 N F Milk River ab St. Mary canal nr Browning MT   4.82 Ssn 3,090 2023-02-05 18:15:00 NFMM8
06135000 Milk River at Eastern Crossing of Int Bndry 9.5 4.02 Ssn 14,400 2023-02-05 18:15:00 ERNM8
06137570 Boxelder Creek near Rocky Boy, MT   3.72 Ice 1,400 2023-02-05 18:00:00  
06137575 Boxelder Creek at Box Elder, MT   5.78 Ice 12.7 2023-02-05 18:00:00  
06138580 Big Sandy Cr ab Spring Coulee, nr Laredo, MT   3.15 Ice 27.5 2023-02-05 18:00:00  
06139500 Big Sandy Creek near Havre MT 8.5 2.28 Ssn 6,000 2023-02-05 18:30:00 BSMM8
06140500 Milk River at Havre MT 10 1.84 Ice 20,000 2023-02-05 18:15:00 HVRM8
06142400 Clear Creek near Chinook MT 5.5 2.84 Ssn 1,490 2023-02-05 18:30:00 CCMM8
06151500 Battle Creek near Chinook MT 10 1.40 Eqp 19,400 2023-01-24 15:30:00 BCMM8
06154100 Milk River near Harlem MT 21 2.70 Ssn 19,000 2023-02-05 18:30:00 HRLM8
06154400 Peoples Creek near Hays MT   2.90 Ice 8,460 2023-02-05 18:15:00 PEOM8
06155030 Milk River near Dodson MT 23 22.18 Ssn 13,200 2023-02-05 18:15:00 DMRM8
06155500 Milk River at Malta MT 16 1.71 Eqp 24,000 2023-02-05 18:45:00 MALM8
06164000 Frenchman River at international boundary 12 1.181 Ssn 22,700 2023-02-05 18:25:00 FREM8
06164510 Milk River at Juneberg Bridge nr Saco MT 20 3.50 Ice 12,400 2023-02-05 18:00:00 SACM8
06166000 Beaver Cr bl Guston Coulee nr Saco MT 11 13.39 0.00 23,500 2023-01-27 20:45:00 GSCM8
06167500 Beaver Creek near Hinsdale MT 14 3.14 Ssn 8,210 2023-02-05 18:30:00 BCHM8
06169500 Rock Creek bl Horse Creek nr int'l boundary   2.70 Ice 5,110 2023-02-05 18:30:00 ORHM8
06172310 Milk River at Tampico MT 23 2.82 Ssn 45,000 2023-02-05 18:30:00 TMPM8
06174500 Milk River at Nashua MT 20 3.03 Ice 45,300 2023-02-05 18:00:00 NSHM8
06175100 Missouri R at W Frazer Pump Plant nr Frazer MT   6.82

 

  2023-02-05 18:00:00  
06175510 Missouri R at E Frazer Pump Plant nr Frazer MT   44.00

 

  2023-02-05 18:30:00  
06177000 Missouri River near Wolf Point MT 23 14.49 Ice 93,200 2023-02-05 18:00:00 WPTM8
06177500 Redwater River at Circle MT 11 3.57 Ice 6,960 2023-02-05 18:30:00 RRCM8
06178000 Poplar River at international boundary 6 2.81 Ssn 12,700 2023-02-05 18:15:00 PPRM8
06178500 East Poplar River at international boundary 10 5.80 Eqp 4,020 2023-02-05 18:30:00 EPRM8
06181000 Poplar River near Poplar MT 16 6.50 Ice 40,000 2023-02-05 18:30:00 PLRM8
06183450 Big Muddy Creek near Antelope MT 12 3.10 Ice 3,190 2023-02-05 18:15:00 BGCM8
06185110 Big Muddy Creek nr mouth nr Culbertson MT 16 4.63 Ice 2,480 2023-02-05 18:15:00 CBMM8
06185500 Missouri River near Culbertson MT 19 8.48 Ice 104,000 2023-02-05 18:00:00 CLBM8
06186500 Yellowstone River at Yellowstone Lk Outlet YNP 9 2.75 Ice 9,950 2023-02-05 18:30:00 YLOW4
06187915 Soda Butte Cr at Park Bndry at Silver Gate   0.18 Ice 1,430 2023-02-05 18:45:00 SBCM8
06188000 Lamar River nr Tower Ranger Station YNP 15 2.12 Ice 19,500 2023-02-05 18:15:00 TFLW4
06190540 Boiling River at Mammoth,YNP   1.04 20.8 36.0 2023-02-05 18:15:00  
06191000 Gardner River near Mammoth, YNP   1.76 94.0 2,110 2023-02-05 18:45:00 GDRM8
06191500 Yellowstone River at Corwin Springs MT 11 0.77 Ice 32,200 2023-02-05 18:00:00 CORM8
06192500 Yellowstone River near Livingston, MT 10 0.39 1,200 40,600 2023-02-05 18:45:00 LIVM8
06192980 Shields River ab Smith Cr, nr Wilsall, MT   2.06 Rat   2023-02-05 18:15:00 SRCM8
06195600 Shields River nr Livingston MT 5.5 1.06 Ice 5,600 2023-02-05 18:30:00 SLDM8
06197800 East Boulder River bl Dry Fork Cr nr Mcleod, MT   2.00 Ice 1,280 2023-02-05 18:30:00 EBRM8
06200000 Boulder River at Big Timber MT 8 1.85 Ice 10,400 2023-02-05 18:45:00 BTMM8
06204050 West Rosebud Creek near Roscoe MT   0.93 86.4 1,630 2023-02-05 18:00:00 WRDM8
06204070 W Rosebud Cr at Emerald Lk Campground nr Roscoe   1.54 64.9 1,390 2023-02-05 18:50:00 WREM8
06205000 Stillwater River near Absarokee MT 7.5 1.41 Ice 12,000 2023-02-05 18:15:00 SRAM8
06207500 Clarks Fork Yellowstone River nr Belfry MT 9 0.90 Ice 14,800 2023-02-05 18:00:00 BFYM8
06208500 Clarks Fork Yellowstone River at Edgar MT 9 2.84 Ice 22,000 2023-02-05 18:30:00 EDGM8
06208790 White Horse Canal near Silesia MT   2.66 Ssn   2023-02-05 18:15:00  
06209500 Rock Creek near Red Lodge MT   5.03 Ice 3,110 2023-02-05 18:00:00 ROKM8
06211000 Red Lodge Cr ab Cooney Re nr Boyd MT   2.78 Ssn 4,700 2023-02-05 18:15:00 BYDM8
06211500 Willow Creek near Boyd MT   2.65 Ssn 2,110 2023-02-05 18:30:00 BOYM8
06214500 Yellowstone River at Billings MT 13.5 5.46 Ice 82,000 2023-02-05 18:00:00 BILM8
06286490 Big Horn Canal near St. Xavier MT   67.24 Ssn   2023-02-05 18:15:00  
06287000 Bighorn River near St. Xavier, MT   59.98 2,510 37,400 2023-02-05 18:15:00 STXM8
06287800 Bighorn River at bridge, at St. Xavier, MT   6.38 2,630 15,600 2023-02-05 18:30:00 SXVM8
06288400 Bighorn River at Two Leggins Bridge, near Hardin   10.19 2,770 16,300 2023-02-05 18:30:00 TLBM8
06289000 Little Bighorn River at State Line nr Wyola MT   1.93 67.5 2,730 2023-02-05 18:00:00 LBSM8
06293890 Agency Canal Tailwaste near Hardin MT   1.37 Ssn   2023-02-05 18:15:00  
06294000 Little Bighorn River near Hardin MT 8 3.81 Ice 22,600 2023-02-05 18:15:00 HRDM8
06294500 Bighorn River ab Tullock Cr nr Bighorn MT   1.74 2,680 33,200 2023-02-05 18:00:00 BGHM8
06295000 Yellowstone River at Forsyth MT 14 3.14 Ice 110,000 2023-02-05 18:45:00 FRYM8
06295113 Rosebud C at Reservation Bndry nr Kirby MT   3.18 Bkw 1,720 2023-02-05 18:45:00 RCRM8
06295220 Rosebud C Bel Lame Deer C nr Lame Deer MT   4.44 Ice 1,150 2023-02-05 18:45:00 RCLM8
06306300 Tongue River at State Line nr Decker MT   3.36 Ice 17,500 2023-02-05 18:15:00 DSLM8
06307500 Tongue River at Tongue R Dam nr Decker MT   10.46 113 10,800 2023-02-05 18:30:00 DKRM8
06307616 Tongue R at Birney Day School Br nr Birney MT 7 2.14 Ice 7,160 2023-02-05 18:30:00 BNYM8
06307662 Tongue River at Ashland, MT   10.50 Ice   2023-02-05 18:45:00  
06307830 Tongue R bl Brandenberg bridge nr Ashland MT   3.63 Ice 8,340 2023-02-05 18:15:00 ASLM8
06308500 Tongue River at Miles City, MT 10 13.54 Ice 15,300 2023-02-02 02:45:00 MICM8
06309000 Yellowstone River at Miles City, MT 14 5.34 Ice 102,000 2023-02-05 18:00:00 MILM8
06324500 Powder River at Moorhead MT   3.73 Ice 100,000 2023-02-05 18:45:00 MHDM8
06326500 Powder River near Locate MT   2.39 Ice 31,000 2023-02-05 18:00:00 LOCM8
06327500 Yellowstone River at Glendive, MT 53.5 45.56 Ice 125,000 2023-02-05 18:00:00 GLNM8
06328495 Yellowstone River Fish Bypass Channel nr Intake MT   15.41 Ssn   2022-10-31 13:15:00  
06329500 Yellowstone River near Sidney MT 19 5.04 Ice 159,000 2023-02-05 18:00:00 SIDM8
12301250 Tobacco River at Eureka, MT   2.43 82.9 2,740 2023-02-05 18:30:00  
12301933 Kootenai River bl Libby Dam nr Libby MT 27.5 17.91 4,220 54,000 2023-02-05 18:00:00 KBDM8
12302055 Fisher River near Libby MT 7.5 3.07 Ice 12,000 2023-02-05 18:45:00 FISM8
12304500 Yaak River near Troy MT 8 3.15 Ice 13,400 2023-02-05 18:45:00 TRYM8
12305000 KOOTENAI RIVER AT LEONIA, ID   10.62 4,880 123,000 2023-02-05 17:15:00 LEOI1
12323233 Blacktail Creek above Grove Gulch, at Butte, MT 8.7 5.04 5.21 77.7 2023-02-05 18:30:00 BKCM8
12323242 Silver Bow Creek at Montana Street, at Butte, MT   6.18 8.64   2023-02-05 18:45:00  
12323250 Silver Bow Cr bl Blacktail Cr, at Butte, MT   1.47 14.2 447 2023-02-05 18:45:00  
12323600 Silver Bow Creek at Opportunity MT   1.94 Ice 1,300 2023-02-05 18:45:00  
12323670 Mill Creek nr Anaconda, MT   2.04 Ice 432 2023-02-05 18:00:00  
12323700 Mill Creek at Opportunity, MT   1.91 Ice 284 2023-02-05 18:30:00  
12323710 Willow Creek nr Anaconda, MT   1.18 Ice 184 2023-02-05 18:00:00  
12323720 Willow Creek at Opportunity, MT   3.77 1.65 211 2023-02-05 18:30:00  
12323750 Silver Bow Creek at Warm Springs MT   1.85 Ice 1,320 2023-02-05 18:15:00  
12323760 Warm Springs Creek near Anaconda MT 4.4 1.99 Ice 930 2023-02-05 18:30:00 ANDM8
12323770 Warm Springs Creek at Warm Springs MT   3.28 Ice 828 2023-02-05 18:45:00  
12323800 Clark Fork near Galen MT   1.90 Ice 1,410 2023-02-05 18:30:00  
12323840 Lost Creek near Anaconda MT   2.64 Ice 144 2023-02-05 18:00:00  
12323850 Lost Creek near Galen, MT   1.87 Ice 164 2023-02-05 18:30:00  
12324200 Clark Fork at Deer Lodge MT 6 2.68 Ice 2,500 2023-02-05 18:30:00 DLGM8
12324400 Clark Fork ab Little Blackfoot R nr Garrison MT   3.41 Ice 2,690 2023-02-05 18:45:00  
12324590 Little Blackfoot River near Garrison MT   0.76 Ice 8,650 2023-02-05 18:30:00  
12324680 Clark Fork at Goldcreek MT   6.31 Ice 12,000 2023-02-05 18:00:00  
12325000 Georgetown Lake near Philipsburg, MT   6428.20

 

  2023-02-05 18:15:00  
12325500 Flint Creek near Southern Cross MT   0.43 Ssn 192 2023-02-05 17:45:00  
12329500 Flint Creek at Maxville MT   1.79 Ice 3,140 2023-02-05 17:45:00  
12330000 Boulder Creek at Maxville MT   1.94 Ice 2,720 2023-02-05 18:30:00  
12331500 Flint Creek near Drummond MT   3.67 Ice 1,880 2023-02-05 18:30:00  
12331800 Clark Fork near Drummond MT 8 2.90 482 9,800 2023-02-05 18:15:00 DRMM8
12332000 Middle Fork Rock Cr nr Philipsburg MT   3.34 Ice 1,680 2023-02-05 18:15:00  
12334510 Rock Creek near Clinton MT 9 5.05 Ice 6,500 2023-02-05 17:45:00 RCCM8
12334550 Clark Fork at Turah Bridge nr Bonner MT   1.85 736 13,300 2023-02-05 18:30:00  
12335100 Blackfoot R ab Nevada Cr nr Helmville MT   3.76 Ice 4,860 2023-02-05 18:45:00  
12335500 Nevada Cr ab reservoir, nr Helmville, MT   1.97 Ice 1,800 2023-02-05 18:45:00  
12338300 NF Blackfoot R ab Dry Gulch nr Ovando MT   4.06 85.1 4,700 2023-02-05 18:00:00  
12340000 Blackfoot River near Bonner MT 10 1.93 Ice 19,200 2023-02-05 18:45:00 BONM8
12340500 Clark Fork above Missoula MT 7.5 2.60 Ice 48,000 2023-02-05 18:00:00 ABOM8
12342500 West Fork Bitterroot River nr Conner MT   1.15 58.0 4,060 2023-02-05 18:15:00 WFBM8
12344000 Bitterroot River near Darby MT 7.5 1.41 Ice 11,500 2023-02-05 18:15:00 DARM8
12350250 Bitterroot River at Bell Crossing nr Victor MT 11.5 4.75 Ssn 18,700 2023-02-05 18:45:00 VICM8
12352500 Bitterroot River near Missoula MT 11 3.11 Ice 38,300 2023-02-05 18:45:00 BITM8
12353000 Clark Fork below Missoula MT 11 1.25 2,170 55,100 2023-02-05 18:00:00 BELM8
12354000 St. Regis River near St. Regis, MT 8 1.91 92.9 29,000 2023-02-05 18:45:00 STRM8
12354500 Clark Fork at St. Regis MT 19 5.23 Ice 68,900 2023-02-05 18:45:00 SRGM8
12355000 Flathead River at Flathead British Columbia 10.5 4.42 Ice 20,900 2023-02-05 18:45:00 NFFQ2
12355500 N F Flathead River nr Columbia Falls MT 13 1.76 Ice 69,100 2023-02-05 18:45:00 FCFM8
12358500 M F Flathead River near West Glacier MT 10 1.57 400 140,000 2023-02-05 18:45:00 WGCM8
12359800 S F Flathead R ab Twin C nr Hungry Horse MT   4.66 Ssn 50,900 2022-12-09 01:45:00 TNCM8
12362000 Hungry Horse Reservoir nr Hungry Horse MT   3524.19

 

  2023-02-05 18:45:00 HHWM8
12362500 S F Flathead River nr Columbia Falls MT   6.31 3,090 46,200 2023-02-05 18:45:00 SFCM8
12363000 Flathead River at Columbia Falls MT 13 3.92 4,050 176,000 2023-02-05 18:45:00 CFMM8
12363500 Flathead River near Kalispell, MT   10.99 3,960 53,400 2023-02-05 18:45:00  
12365700 Stillwater River at Lawrence Park, at Kalispell 7.5 4.34 Ice 3,940 2023-02-05 18:45:00 SRLM8
12366000 Whitefish River near Kalispell MT 5.4 2.04 Ice 1,580 2023-02-05 18:45:00 WHRM8
12366500 Flathead River at Foys Bend nr Kalispell MT   89.22

 

  2023-02-05 18:45:00 FOYM8
12370000 Swan River near Bigfork, MT 6.5 2.26 Ice 8,890 2023-02-05 18:00:00 SWRM8
12371550 Flathead Lake at Polson MT   2886.26

 

  2023-02-05 18:30:00 KERM8
12372000 Flathead River near Polson MT 18 6.21 9,020 110,000 2023-02-05 18:50:00 FPOM8
12377150 Mission Creek ab reservoir nr St. Ignatius MT   1.99 Ice 915 2023-02-05 18:15:00  
12381400 South Fork Jocko River near Arlee MT   1.27 Ice 1,220 2023-02-05 18:15:00  
12388700 Flathead River at Perma MT   9.07 8,890 55,400 2023-02-05 18:30:00 PERM8
12389000 Clark Fork near Plains MT 16 4.87 11,400 134,000 2023-02-05 18:45:00 PLNM8
12389500 Thompson River near Thompson Falls MT 7 2.70 128 6,190 2023-02-05 18:45:00 THRM8
12390700 Prospect Creek at Thompson Falls MT 7.5 0.66 50.2 5,490 2023-02-05 18:15:00 PRCM8
480608115242901 Libby Wetland Site bl Schrieber Lake nr Libby, MT   3.17

 

34.0 2023-02-05 18:30:00